owner,sensor,date,latitude,longitude,vertical_datum,direction_of_sea_water_velocity,sea_water_speed,upward_sea_water_velocity,qcFlag 
TABS,ioos:station:wmo:42048:1,1999-03-01T00:00:00Z,27.9396,-96.8429,2.0,352.9711449,34.0761104,-99999.0,'11111222,11111222,99999999' 
TABS,ioos:station:wmo:42048:1,1999-03-01T00:30:00Z,27.9396,-96.8429,2.0,350.9613387,43.60144608,-99999.0,'11111222,11111222,99999999' 
TABS,ioos:station:wmo:42048:1,1999-03-01T01:00:00Z,27.9396,-96.8429,2.0,352.1441113,34.89753286,-99999.0,'11111222,11111222,99999999' 
TABS,ioos:station:wmo:42048:1,1999-03-01T01:30:00Z,27.9396,-96.8429,2.0,354.6777373,40.10290887,-99999.0,'11111222,11111222,99999999' 
TABS,ioos:station:wmo:42048:1,1999-03-01T02:00:00Z,27.9396,-96.8429,2.0,0.000210459,41.12,-99999.0,'11111222,11111222,99999999' 
TABS,ioos:station:wmo:42048:1,1999-03-01T02:30:00Z,27.9396,-96.8429,2.0,6.176791525,35.96879898,-99999.0,'11111222,11111222,99999999' 
TABS,ioos:station:wmo:42048:1,1999-03-01T03:00:00Z,27.9396,-96.8429,2.0,6.719774408,34.35600093,-99999.0,'11111222,11111222,99999999' 
TABS,ioos:station:wmo:42048:1,1999-03-01T03:30:00Z,27.9396,-96.8429,2.0,11.261044,32.05715521,-99999.0,'11111222,11111222,99999999' 
TABS,ioos:station:wmo:42048:1,1999-03-01T04:00:00Z,27.9396,-96.8429,2.0,10.77155111,31.08774196,-99999.0,'11111222,11111222,99999999' 
TABS,ioos:station:wmo:42048:1,1999-03-01T04:30:00Z,27.9396,-96.8429,2.0,15.43645284,29.68066879,-99999.0,'11111222,11111222,99999999' 
TABS,ioos:station:wmo:42048:1,1999-03-01T05:00:00Z,27.9396,-96.8429,2.0,16.2914243,30.26520444,-99999.0,'11111222,11111222,99999999' 
TABS,ioos:station:wmo:42048:1,1999-03-01T05:30:00Z,27.9396,-96.8429,2.0,18.33217236,24.6405073,-99999.0,'11111222,11111222,99999999' 
TABS,ioos:station:wmo:42048:1,1999-03-01T06:00:00Z,27.9396,-96.8429,2.0,24.56233786,26.87159281,-99999.0,'11111222,11111222,99999999' 
TABS,ioos:station:wmo:42048:1,1999-03-01T06:30:00Z,27.9396,-96.8429,2.0,31.85219003,24.55811882,-99999.0,'11111222,11111222,99999999' 
TABS,ioos:station:wmo:42048:1,1999-03-01T07:00:00Z,27.9396,-96.8429,2.0,33.70428541,22.56243116,-99999.0,'11111222,11111222,99999999' 
TABS,ioos:station:wmo:42048:1,1999-03-01T07:30:00Z,27.9396,-96.8429,2.0,42.95121999,20.76686062,-99999.0,'11111222,11111222,99999999' 
TABS,ioos:station:wmo:42048:1,1999-03-01T08:00:00Z,27.9396,-96.8429,2.0,45.53625406,21.91419859,-99999.0,'11111222,11111222,99999999' 
TABS,ioos:station:wmo:42048:1,1999-03-01T08:30:00Z,27.9396,-96.8429,2.0,52.94090084,17.55609581,-99999.0,'11111222,11111222,99999999' 
TABS,ioos:station:wmo:42048:1,1999-03-01T09:00:00Z,27.9396,-96.8429,2.0,57.62999495,17.81892533,-99999.0,'11111222,11111222,99999999' 
TABS,ioos:station:wmo:42048:1,1999-03-01T09:30:00Z,27.9396,-96.8429,2.0,61.85846457,17.06765948,-99999.0,'11111222,11111222,99999999' 
TABS,ioos:station:wmo:42048:1,1999-03-01T10:00:00Z,27.9396,-96.8429,2.0,60.92934466,13.80974294,-99999.0,'11111222,11111222,99999999' 
TABS,ioos:station:wmo:42048:1,1999-03-01T10:30:00Z,27.9396,-96.8429,2.0,50.76656956,11.54181961,-99999.0,'11111222,11111222,99999999' 
TABS,ioos:station:wmo:42048:1,1999-03-01T11:00:00Z,27.9396,-96.8429,2.0,48.5979969,11.71864327,-99999.0,'11111222,11111222,99999999' 
TABS,ioos:station:wmo:42048:1,1999-03-01T11:30:00Z,27.9396,-96.8429,2.0,48.52756503,10.34335536,-99999.0,'11111222,11111222,99999999' 
TABS,ioos:station:wmo:42048:1,1999-03-01T12:00:00Z,27.9396,-96.8429,2.0,35.31909524,10.04968159,-99999.0,'11111222,11111222,99999999' 
TABS,ioos:station:wmo:42048:1,1999-03-01T12:30:00Z,27.9396,-96.8429,2.0,27.41635294,8.730572719,-99999.0,'11133222,11111222,99999999' 
TABS,ioos:station:wmo:42048:1,1999-03-01T13:00:00Z,27.9396,-96.8429,2.0,33.40473088,9.463302806,-99999.0,'11133222,11111222,99999999' 
TABS,ioos:station:wmo:42048:1,1999-03-01T13:30:00Z,27.9396,-96.8429,2.0,35.9154038,8.643199639,-99999.0,'11133222,11111222,99999999' 
TABS,ioos:station:wmo:42048:1,1999-03-01T14:00:00Z,27.9396,-96.8429,2.0,7.582241773,9.018852477,-99999.0,'11133222,11111222,99999999' 
TABS,ioos:station:wmo:42048:1,1999-03-01T14:30:00Z,27.9396,-96.8429,2.0,3.89116447,10.9051364,-99999.0,'11111222,11111222,99999999' 
TABS,ioos:station:wmo:42048:1,1999-03-01T15:00:00Z,27.9396,-96.8429,2.0,1.357673129,12.663554,-99999.0,'11111222,11111222,99999999' 
TABS,ioos:station:wmo:42048:1,1999-03-01T15:30:00Z,27.9396,-96.8429,2.0,0.000210459,13.56,-99999.0,'11111222,11111222,99999999' 
TABS,ioos:station:wmo:42048:1,1999-03-01T16:00:00Z,27.9396,-96.8429,2.0,358.1977954,14.30707867,-99999.0,'11111222,11111222,99999999' 
TABS,ioos:station:wmo:42048:1,1999-03-01T16:30:00Z,27.9396,-96.8429,2.0,353.6492101,17.53763097,-99999.0,'11111222,11111222,99999999' 
TABS,ioos:station:wmo:42048:1,1999-03-01T17:00:00Z,27.9396,-96.8429,2.0,346.9777768,18.50593959,-99999.0,'11111222,11111222,99999999' 
TABS,ioos:station:wmo:42048:1,1999-03-01T17:30:00Z,27.9396,-96.8429,2.0,348.6779801,18.23487867,-99999.0,'11111222,11111222,99999999' 
TABS,ioos:station:wmo:42048:1,1999-03-01T18:00:00Z,27.9396,-96.8429,2.0,349.7362746,22.56103721,-99999.0,'11111222,11111222,99999999' 
TABS,ioos:station:wmo:42048:1,1999-03-01T18:30:00Z,27.9396,-96.8429,2.0,355.0563766,25.87626905,-99999.0,'11111222,11111222,99999999' 
TABS,ioos:station:wmo:42048:1,1999-03-01T19:00:00Z,27.9396,-96.8429,2.0,8.908750917,27.89652308,-99999.0,'11111222,11111222,99999999' 
TABS,ioos:station:wmo:42048:1,1999-03-01T19:30:00Z,27.9396,-96.8429,2.0,8.586823148,31.94809853,-99999.0,'11111222,11111222,99999999' 
TABS,ioos:station:wmo:42048:1,1999-03-01T20:00:00Z,27.9396,-96.8429,2.0,6.698200966,39.61035218,-99999.0,'11111222,11111222,99999999' 
TABS,ioos:station:wmo:42048:1,1999-03-01T20:30:00Z,27.9396,-96.8429,2.0,5.589612936,42.81356094,-99999.0,'11111222,11111222,99999999' 
TABS,ioos:station:wmo:42048:1,1999-03-01T21:00:00Z,27.9396,-96.8429,2.0,10.15633215,44.80200888,-99999.0,'11111222,11111222,99999999' 
TABS,ioos:station:wmo:42048:1,1999-03-01T21:30:00Z,27.9396,-96.8429,2.0,12.24904731,42.84536148,-99999.0,'11111222,11111222,99999999' 
TABS,ioos:station:wmo:42048:1,1999-03-01T22:00:00Z,27.9396,-96.8429,2.0,11.6895523,44.12513683,-99999.0,'11111222,11111222,99999999' 
TABS,ioos:station:wmo:42048:1,1999-03-01T22:30:00Z,27.9396,-96.8429,2.0,11.19194952,43.74183581,-99999.0,'11111222,11111222,99999999' 
TABS,ioos:station:wmo:42048:1,1999-03-01T23:00:00Z,27.9396,-96.8429,2.0,12.90309581,44.02155154,-99999.0,'11111222,11111222,99999999' 
TABS,ioos:station:wmo:42048:1,1999-03-01T23:30:00Z,27.9396,-96.8429,2.0,12.66828109,45.50780592,-99999.0,'11111222,11111222,99999999' 
TABS,ioos:station:wmo:42048:1,1999-03-02T00:00:00Z,27.9396,-96.8429,2.0,16.19101904,43.28683172,-99999.0,'11111222,11111222,99999999' 
TABS,ioos:station:wmo:42048:1,1999-03-02T00:30:00Z,27.9396,-96.8429,2.0,15.33239115,41.71467128,-99999.0,'11111222,11111222,99999999' 
TABS,ioos:station:wmo:42048:1,1999-03-02T01:00:00Z,27.9396,-96.8429,2.0,18.03197555,40.89874937,-99999.0,'11111222,11111222,99999999' 
TABS,ioos:station:wmo:42048:1,1999-03-02T01:30:00Z,27.9396,-96.8429,2.0,24.64312979,43.60102407,-99999.0,'11111222,11111222,99999999' 
TABS,ioos:station:wmo:42048:1,1999-03-02T02:00:00Z,27.9396,-96.8429,2.0,26.46857963,39.77970588,-99999.0,'11111222,11111222,99999999' 
TABS,ioos:station:wmo:42048:1,1999-03-02T02:30:00Z,27.9396,-96.8429,2.0,27.53457648,39.65116013,-99999.0,'11111222,11111222,99999999' 
TABS,ioos:station:wmo:42048:1,1999-03-02T03:00:00Z,27.9396,-96.8429,2.0,28.22969448,34.33365841,-99999.0,'11111222,11111222,99999999' 
TABS,ioos:station:wmo:42048:1,1999-03-02T03:30:00Z,27.9396,-96.8429,2.0,31.25948429,35.90199159,-99999.0,'11111222,11111222,99999999' 
TABS,ioos:station:wmo:42048:1,1999-03-02T04:00:00Z,27.9396,-96.8429,2.0,33.4852925,36.44958299,-99999.0,'11111222,11111222,99999999' 
TABS,ioos:station:wmo:42048:1,1999-03-02T04:30:00Z,27.9396,-96.8429,2.0,32.95262429,35.33455674,-99999.0,'11111222,11111222,99999999' 
TABS,ioos:station:wmo:42048:1,1999-03-02T05:00:00Z,27.9396,-96.8429,2.0,31.43284495,34.57355782,-99999.0,'11111222,11111222,99999999' 
TABS,ioos:station:wmo:42048:1,1999-03-02T05:30:00Z,27.9396,-96.8429,2.0,33.89587958,35.53987057,-99999.0,'11111222,11111222,99999999' 
TABS,ioos:station:wmo:42048:1,1999-03-02T06:00:00Z,27.9396,-96.8429,2.0,33.6826149,41.90482669,-99999.0,'11111222,11111222,99999999' 
TABS,ioos:station:wmo:42048:1,1999-03-02T06:30:00Z,27.9396,-96.8429,2.0,36.13902124,39.66122792,-99999.0,'11111222,11111222,99999999' 
TABS,ioos:station:wmo:42048:1,1999-03-02T07:00:00Z,27.9396,-96.8429,2.0,31.40006702,40.32563081,-99999.0,'11111222,11111222,99999999' 
TABS,ioos:station:wmo:42048:1,1999-03-02T07:30:00Z,27.9396,-96.8429,2.0,35.29158042,44.36283354,-99999.0,'11111222,11111222,99999999' 
TABS,ioos:station:wmo:42048:1,1999-03-02T08:00:00Z,27.9396,-96.8429,2.0,35.6542907,43.45578212,-99999.0,'11111222,11111222,99999999' 
TABS,ioos:station:wmo:42048:1,1999-03-02T08:30:00Z,27.9396,-96.8429,2.0,34.75337237,46.78592203,-99999.0,'11111222,11111222,99999999' 
TABS,ioos:station:wmo:42048:1,1999-03-02T09:00:00Z,27.9396,-96.8429,2.0,34.60369027,49.05837339,-99999.0,'11111222,11111222,99999999' 
TABS,ioos:station:wmo:42048:1,1999-03-02T09:30:00Z,27.9396,-96.8429,2.0,38.42860088,46.03102975,-99999.0,'11111222,11111222,99999999' 
TABS,ioos:station:wmo:42048:1,1999-03-02T10:00:00Z,27.9396,-96.8429,2.0,38.92345568,44.82078201,-99999.0,'11111222,11111222,99999999' 
TABS,ioos:station:wmo:42048:1,1999-03-02T10:30:00Z,27.9396,-96.8429,2.0,38.62384162,44.63290826,-99999.0,'11111222,11111222,99999999' 
TABS,ioos:station:wmo:42048:1,1999-03-02T11:00:00Z,27.9396,-96.8429,2.0,39.21903495,42.89204239,-99999.0,'11111222,11111222,99999999' 
TABS,ioos:station:wmo:42048:1,1999-03-02T11:30:00Z,27.9396,-96.8429,2.0,33.92752185,39.50608687,-99999.0,'11111222,11111222,99999999' 
TABS,ioos:station:wmo:42048:1,1999-03-02T12:00:00Z,27.9396,-96.8429,2.0,33.96432147,43.47789898,-99999.0,'11111222,11111222,99999999' 
TABS,ioos:station:wmo:42048:1,1999-03-02T12:30:00Z,27.9396,-96.8429,2.0,32.51492175,44.35206421,-99999.0,'11111222,11111222,99999999' 
TABS,ioos:station:wmo:42048:1,1999-03-02T13:00:00Z,27.9396,-96.8429,2.0,30.20033817,46.2006764,-99999.0,'11111222,11111222,99999999' 
TABS,ioos:station:wmo:42048:1,1999-03-02T13:30:00Z,27.9396,-96.8429,2.0,37.32413903,37.85118888,-99999.0,'11111222,11111222,99999999' 
TABS,ioos:station:wmo:42048:1,1999-03-02T14:00:00Z,27.9396,-96.8429,2.0,37.94273316,33.43786028,-99999.0,'11111222,11111222,99999999' 
TABS,ioos:station:wmo:42048:1,1999-03-02T14:30:00Z,27.9396,-96.8429,2.0,34.51421679,31.82089408,-99999.0,'11111222,11111222,99999999' 
TABS,ioos:station:wmo:42048:1,1999-03-02T15:00:00Z,27.9396,-96.8429,2.0,35.99398571,28.9093791,-99999.0,'11111222,11111222,99999999' 
TABS,ioos:station:wmo:42048:1,1999-03-02T15:30:00Z,27.9396,-96.8429,2.0,37.81735724,26.9756872,-99999.0,'11111222,11111222,99999999' 
TABS,ioos:station:wmo:42048:1,1999-03-02T16:00:00Z,27.9396,-96.8429,2.0,32.33842907,26.45269362,-99999.0,'11111222,11111222,99999999' 
TABS,ioos:station:wmo:42048:1,1999-03-02T16:30:00Z,27.9396,-96.8429,2.0,21.97466706,28.27410122,-99999.0,'11111222,11111222,99999999' 
TABS,ioos:station:wmo:42048:1,1999-03-02T17:00:00Z,27.9396,-96.8429,2.0,27.49298312,28.72382287,-99999.0,'11111222,11111222,99999999' 
TABS,ioos:station:wmo:42048:1,1999-03-02T17:30:00Z,27.9396,-96.8429,2.0,39.7753017,26.556133,-99999.0,'11111222,11111222,99999999' 
TABS,ioos:station:wmo:42048:1,1999-03-02T18:00:00Z,27.9396,-96.8429,2.0,47.96946407,26.48134815,-99999.0,'11111222,11111222,99999999' 
TABS,ioos:station:wmo:42048:1,1999-03-02T18:30:00Z,27.9396,-96.8429,2.0,47.84971777,25.31744458,-99999.0,'11111222,11111222,99999999' 
TABS,ioos:station:wmo:42048:1,1999-03-02T19:00:00Z,27.9396,-96.8429,2.0,41.86327235,23.00129127,-99999.0,'11111222,11111222,99999999' 
TABS,ioos:station:wmo:42048:1,1999-03-02T19:30:00Z,27.9396,-96.8429,2.0,42.73115116,23.93311513,-99999.0,'11111222,11111222,99999999' 
TABS,ioos:station:wmo:42048:1,1999-03-02T20:00:00Z,27.9396,-96.8429,2.0,35.89485275,26.67586362,-99999.0,'11111222,11111222,99999999' 
TABS,ioos:station:wmo:42048:1,1999-03-02T20:30:00Z,27.9396,-96.8429,2.0,32.14849265,24.63760743,-99999.0,'11111222,11111222,99999999' 
TABS,ioos:station:wmo:42048:1,1999-03-02T21:00:00Z,27.9396,-96.8429,2.0,37.35532932,24.55688091,-99999.0,'11111222,11111222,99999999' 
TABS,ioos:station:wmo:42048:1,1999-03-02T21:30:00Z,27.9396,-96.8429,2.0,37.79837606,23.57709482,-99999.0,'11111222,11111222,99999999' 
TABS,ioos:station:wmo:42048:1,1999-03-02T22:00:00Z,27.9396,-96.8429,2.0,32.67877119,23.72545047,-99999.0,'11111222,11111222,99999999' 
TABS,ioos:station:wmo:42048:1,1999-03-02T22:30:00Z,27.9396,-96.8429,2.0,37.370618,23.80690866,-99999.0,'11111222,11111222,99999999' 
TABS,ioos:station:wmo:42048:1,1999-03-02T23:00:00Z,27.9396,-96.8429,2.0,26.02974178,21.05573556,-99999.0,'11111222,11111222,99999999' 
TABS,ioos:station:wmo:42048:1,1999-03-02T23:30:00Z,27.9396,-96.8429,2.0,20.41329123,19.23811321,-99999.0,'11111222,11111222,99999999' 
TABS,ioos:station:wmo:42048:1,1999-03-03T00:00:00Z,27.9396,-96.8429,2.0,13.15772243,18.97821909,-99999.0,'11111222,11111222,99999999' 
TABS,ioos:station:wmo:42048:1,1999-03-03T00:30:00Z,27.9396,-96.8429,2.0,15.87913257,20.13844582,-99999.0,'11111222,11111222,99999999' 
TABS,ioos:station:wmo:42048:1,1999-03-03T01:00:00Z,27.9396,-96.8429,2.0,6.669934219,19.19994271,-99999.0,'11111222,11111222,99999999' 
TABS,ioos:station:wmo:42048:1,1999-03-03T01:30:00Z,27.9396,-96.8429,2.0,12.23258067,21.80505675,-99999.0,'11111222,11111222,99999999' 
TABS,ioos:station:wmo:42048:1,1999-03-03T02:00:00Z,27.9396,-96.8429,2.0,11.53634186,22.35153015,-99999.0,'11111222,11111222,99999999' 
TABS,ioos:station:wmo:42048:1,1999-03-03T02:30:00Z,27.9396,-96.8429,2.0,12.66464847,21.07268374,-99999.0,'11111222,11111222,99999999' 
TABS,ioos:station:wmo:42048:1,1999-03-03T03:00:00Z,27.9396,-96.8429,2.0,26.85411302,14.19026779,-99999.0,'11111222,11111222,99999999' 
TABS,ioos:station:wmo:42048:1,1999-03-03T03:30:00Z,27.9396,-96.8429,2.0,30.61219582,12.29325018,-99999.0,'11111222,11111222,99999999' 
TABS,ioos:station:wmo:42048:1,1999-03-03T04:00:00Z,27.9396,-96.8429,2.0,33.97801129,7.729844759,-99999.0,'11133222,11111222,99999999' 
TABS,ioos:station:wmo:42048:1,1999-03-03T04:30:00Z,27.9396,-96.8429,2.0,58.00548991,5.624348851,-99999.0,'11133222,11111222,99999999' 
TABS,ioos:station:wmo:42048:1,1999-03-03T05:00:00Z,27.9396,-96.8429,2.0,40.57882615,2.751763071,-99999.0,'11133222,11111222,99999999' 
TABS,ioos:station:wmo:42048:1,1999-03-03T05:30:00Z,27.9396,-96.8429,2.0,259.6332807,1.667213244,-99999.0,'11133222,11111222,99999999' 
TABS,ioos:station:wmo:42048:1,1999-03-03T06:00:00Z,27.9396,-96.8429,2.0,221.1629495,4.755344362,-99999.0,'11133222,11111222,99999999' 
TABS,ioos:station:wmo:42048:1,1999-03-03T06:30:00Z,27.9396,-96.8429,2.0,249.0017774,6.22326281,-99999.0,'11133222,11111222,99999999' 
TABS,ioos:station:wmo:42048:1,1999-03-03T07:00:00Z,27.9396,-96.8429,2.0,222.6926919,7.904789687,-99999.0,'11133222,11111222,99999999' 
TABS,ioos:station:wmo:42048:1,1999-03-03T07:30:00Z,27.9396,-96.8429,2.0,227.6585625,6.85924923,-99999.0,'11133222,11111222,99999999' 
TABS,ioos:station:wmo:42048:1,1999-03-03T08:00:00Z,27.9396,-96.8429,2.0,232.070572,11.14390416,-99999.0,'11111222,11111222,99999999' 
TABS,ioos:station:wmo:42048:1,1999-03-03T08:30:00Z,27.9396,-96.8429,2.0,223.6882545,13.59415315,-99999.0,'11111222,11111222,99999999' 
TABS,ioos:station:wmo:42048:1,1999-03-03T09:00:00Z,27.9396,-96.8429,2.0,225.73926,16.43453072,-99999.0,'11111222,11111222,99999999' 
TABS,ioos:station:wmo:42048:1,1999-03-03T09:30:00Z,27.9396,-96.8429,2.0,218.6647175,17.17442867,-99999.0,'11111222,11111222,99999999' 
TABS,ioos:station:wmo:42048:1,1999-03-03T10:00:00Z,27.9396,-96.8429,2.0,222.1542453,19.08713179,-99999.0,'11111222,11111222,99999999' 
TABS,ioos:station:wmo:42048:1,1999-03-03T10:30:00Z,27.9396,-96.8429,2.0,221.3689527,23.22557642,-99999.0,'11111222,11111222,99999999' 
TABS,ioos:station:wmo:42048:1,1999-03-03T11:00:00Z,27.9396,-96.8429,2.0,214.3340855,22.19773187,-99999.0,'11111222,11111222,99999999' 
TABS,ioos:station:wmo:42048:1,1999-03-03T11:30:00Z,27.9396,-96.8429,2.0,222.3412071,25.00191993,-99999.0,'11111222,11111222,99999999' 
TABS,ioos:station:wmo:42048:1,1999-03-03T12:00:00Z,27.9396,-96.8429,2.0,219.5884881,25.71895216,-99999.0,'11111222,11111222,99999999' 
TABS,ioos:station:wmo:42048:1,1999-03-03T12:30:00Z,27.9396,-96.8429,2.0,219.2782268,29.64819387,-99999.0,'11111222,11111222,99999999' 
TABS,ioos:station:wmo:42048:1,1999-03-03T13:00:00Z,27.9396,-96.8429,2.0,216.1725462,31.56433589,-99999.0,'11111222,11111222,99999999' 
TABS,ioos:station:wmo:42048:1,1999-03-03T13:30:00Z,27.9396,-96.8429,2.0,223.0113876,33.42384777,-99999.0,'11111222,11111222,99999999' 
TABS,ioos:station:wmo:42048:1,1999-03-03T14:00:00Z,27.9396,-96.8429,2.0,225.829597,29.29143561,-99999.0,'11111222,11111222,99999999' 
TABS,ioos:station:wmo:42048:1,1999-03-03T14:30:00Z,27.9396,-96.8429,2.0,227.4473768,31.95502621,-99999.0,'11111222,11111222,99999999' 
TABS,ioos:station:wmo:42048:1,1999-03-03T15:00:00Z,27.9396,-96.8429,2.0,227.5293677,33.32306108,-99999.0,'11111222,11111222,99999999' 
TABS,ioos:station:wmo:42048:1,1999-03-03T15:30:00Z,27.9396,-96.8429,2.0,228.0466296,33.65636493,-99999.0,'11111222,11111222,99999999' 
TABS,ioos:station:wmo:42048:1,1999-03-03T16:00:00Z,27.9396,-96.8429,2.0,229.4999483,34.8759645,-99999.0,'11111222,11111222,99999999' 
TABS,ioos:station:wmo:42048:1,1999-03-03T16:30:00Z,27.9396,-96.8429,2.0,229.803903,36.47343143,-99999.0,'11111222,11111222,99999999' 
TABS,ioos:station:wmo:42048:1,1999-03-03T17:00:00Z,27.9396,-96.8429,2.0,228.0641247,35.44845554,-99999.0,'11111222,11111222,99999999' 
TABS,ioos:station:wmo:42048:1,1999-03-03T17:30:00Z,27.9396,-96.8429,2.0,231.1839112,33.27919019,-99999.0,'11111222,11111222,99999999' 
TABS,ioos:station:wmo:42048:1,1999-03-03T18:00:00Z,27.9396,-96.8429,2.0,232.190198,34.51664091,-99999.0,'11111222,11111222,99999999' 
TABS,ioos:station:wmo:42048:1,1999-03-03T18:30:00Z,27.9396,-96.8429,2.0,234.4043889,33.53629825,-99999.0,'11111222,11111222,99999999' 
TABS,ioos:station:wmo:42048:1,1999-03-03T19:00:00Z,27.9396,-96.8429,2.0,231.0815784,30.8336991,-99999.0,'11111222,11111222,99999999' 
TABS,ioos:station:wmo:42048:1,1999-03-03T19:30:00Z,27.9396,-96.8429,2.0,228.6490092,29.77299783,-99999.0,'11111222,11111222,99999999' 
TABS,ioos:station:wmo:42048:1,1999-03-03T20:00:00Z,27.9396,-96.8429,2.0,233.8863069,31.35473329,-99999.0,'11111222,11111222,99999999' 
TABS,ioos:station:wmo:42048:1,1999-03-03T20:30:00Z,27.9396,-96.8429,2.0,237.4295695,33.77105269,-99999.0,'11111222,11111222,99999999' 
TABS,ioos:station:wmo:42048:1,1999-03-03T21:00:00Z,27.9396,-96.8429,2.0,238.9334929,29.7464771,-99999.0,'11111222,11111222,99999999' 
TABS,ioos:station:wmo:42048:1,1999-03-03T21:30:00Z,27.9396,-96.8429,2.0,237.0596225,25.2132842,-99999.0,'11111222,11111222,99999999' 
TABS,ioos:station:wmo:42048:1,1999-03-03T22:00:00Z,27.9396,-96.8429,2.0,236.8346885,27.23692347,-99999.0,'11111222,11111222,99999999' 
TABS,ioos:station:wmo:42048:1,1999-03-03T22:30:00Z,27.9396,-96.8429,2.0,229.1148317,23.45155432,-99999.0,'11111222,11111222,99999999' 
TABS,ioos:station:wmo:42048:1,1999-03-03T23:00:00Z,27.9396,-96.8429,2.0,235.8112628,23.59783888,-99999.0,'11111222,11111222,99999999' 
TABS,ioos:station:wmo:42048:1,1999-03-03T23:30:00Z,27.9396,-96.8429,2.0,232.9502125,19.78409715,-99999.0,'11111222,11111222,99999999' 
TABS,ioos:station:wmo:42048:1,1999-03-04T00:00:00Z,27.9396,-96.8429,2.0,223.9383384,17.17857095,-99999.0,'11111222,11111222,99999999' 
TABS,ioos:station:wmo:42048:1,1999-03-04T00:30:00Z,27.9396,-96.8429,2.0,228.0459039,17.83014302,-99999.0,'11111222,11111222,99999999' 
TABS,ioos:station:wmo:42048:1,1999-03-04T01:00:00Z,27.9396,-96.8429,2.0,230.070802,19.03912813,-99999.0,'11111222,11111222,99999999' 
TABS,ioos:station:wmo:42048:1,1999-03-04T01:30:00Z,27.9396,-96.8429,2.0,229.837291,15.0087741,-99999.0,'11111222,11111222,99999999' 
TABS,ioos:station:wmo:42048:1,1999-03-04T02:00:00Z,27.9396,-96.8429,2.0,255.566344,10.1503596,-99999.0,'11111222,11111222,99999999' 
TABS,ioos:station:wmo:42048:1,1999-03-04T02:30:00Z,27.9396,-96.8429,2.0,278.4359719,12.20200803,-99999.0,'11111222,11111222,99999999' 
TABS,ioos:station:wmo:42048:1,1999-03-04T03:00:00Z,27.9396,-96.8429,2.0,294.8410009,10.99749062,-99999.0,'11111222,11111222,99999999' 
TABS,ioos:station:wmo:42048:1,1999-03-04T03:30:00Z,27.9396,-96.8429,2.0,309.229848,9.423990662,-99999.0,'11133222,11111222,99999999' 
TABS,ioos:station:wmo:42048:1,1999-03-04T04:00:00Z,27.9396,-96.8429,2.0,309.826921,6.979290795,-99999.0,'11133222,11111222,99999999' 
TABS,ioos:station:wmo:42048:1,1999-03-04T04:30:00Z,27.9396,-96.8429,2.0,321.3287709,7.633773641,-99999.0,'11133222,11111222,99999999' 
TABS,ioos:station:wmo:42048:1,1999-03-04T05:00:00Z,27.9396,-96.8429,2.0,322.647582,7.120252805,-99999.0,'11133222,11111222,99999999' 
TABS,ioos:station:wmo:42048:1,1999-03-04T05:30:00Z,27.9396,-96.8429,2.0,330.0260339,7.746031242,-99999.0,'11133222,11111222,99999999' 
TABS,ioos:station:wmo:42048:1,1999-03-04T06:00:00Z,27.9396,-96.8429,2.0,334.9927253,7.404120474,-99999.0,'11133222,11111222,99999999' 
TABS,ioos:station:wmo:42048:1,1999-03-04T06:30:00Z,27.9396,-96.8429,2.0,344.8409074,13.11642101,-99999.0,'11111222,11111222,99999999' 
TABS,ioos:station:wmo:42048:1,1999-03-04T07:00:00Z,27.9396,-96.8429,2.0,344.6874279,9.580109603,-99999.0,'11133222,11111222,99999999' 
TABS,ioos:station:wmo:42048:1,1999-03-04T07:30:00Z,27.9396,-96.8429,2.0,349.1366563,11.83204547,-99999.0,'11111222,11111222,99999999' 
TABS,ioos:station:wmo:42048:1,1999-03-04T08:00:00Z,27.9396,-96.8429,2.0,2.658200283,15.95716767,-99999.0,'11111222,11111222,99999999' 
TABS,ioos:station:wmo:42048:1,1999-03-04T08:30:00Z,27.9396,-96.8429,2.0,9.270586139,15.70512337,-99999.0,'11111222,11111222,99999999' 
TABS,ioos:station:wmo:42048:1,1999-03-04T09:00:00Z,27.9396,-96.8429,2.0,4.270234099,11.95317949,-99999.0,'11111222,11111222,99999999' 
TABS,ioos:station:wmo:42048:1,1999-03-04T09:30:00Z,27.9396,-96.8429,2.0,12.76231581,11.45293849,-99999.0,'11111222,11111222,99999999' 
TABS,ioos:station:wmo:42048:1,1999-03-04T10:00:00Z,27.9396,-96.8429,2.0,20.70975388,11.79193792,-99999.0,'11111222,11111222,99999999' 
TABS,ioos:station:wmo:42048:1,1999-03-04T10:30:00Z,27.9396,-96.8429,2.0,23.75425012,13.67883401,-99999.0,'11111222,11111222,99999999' 
TABS,ioos:station:wmo:42048:1,1999-03-04T11:00:00Z,27.9396,-96.8429,2.0,23.58974824,11.5447304,-99999.0,'11111222,11111222,99999999' 
TABS,ioos:station:wmo:42048:1,1999-03-04T11:30:00Z,27.9396,-96.8429,2.0,18.20976573,12.86424502,-99999.0,'11111222,11111222,99999999' 
TABS,ioos:station:wmo:42048:1,1999-03-04T12:00:00Z,27.9396,-96.8429,2.0,24.54164052,15.07155267,-99999.0,'11111222,11111222,99999999' 
TABS,ioos:station:wmo:42048:1,1999-03-04T12:30:00Z,27.9396,-96.8429,2.0,23.67728077,18.55161988,-99999.0,'11111222,11111222,99999999' 
TABS,ioos:station:wmo:42048:1,1999-03-04T13:00:00Z,27.9396,-96.8429,2.0,28.91770576,17.86782583,-99999.0,'11111222,11111222,99999999' 
TABS,ioos:station:wmo:42048:1,1999-03-04T13:30:00Z,27.9396,-96.8429,2.0,35.30985975,13.14887448,-99999.0,'11111222,11111222,99999999' 
TABS,ioos:station:wmo:42048:1,1999-03-04T14:00:00Z,27.9396,-96.8429,2.0,31.17391205,14.97192706,-99999.0,'11111222,11111222,99999999' 
TABS,ioos:station:wmo:42048:1,1999-03-04T14:30:00Z,27.9396,-96.8429,2.0,34.86453453,14.34478651,-99999.0,'11111222,11111222,99999999' 
TABS,ioos:station:wmo:42048:1,1999-03-04T15:00:00Z,27.9396,-96.8429,2.0,29.67457337,17.14905537,-99999.0,'11111222,11111222,99999999' 
TABS,ioos:station:wmo:42048:1,1999-03-04T15:30:00Z,27.9396,-96.8429,2.0,32.7169378,16.8181628,-99999.0,'11111222,11111222,99999999' 
TABS,ioos:station:wmo:42048:1,1999-03-04T16:00:00Z,27.9396,-96.8429,2.0,30.76501495,16.30446871,-99999.0,'11111222,11111222,99999999' 